[[{"header":{"parameterUnit":"m.s-1","parameterCategory":1,"la1":30.2992,"la2":30.254,"lo1":-89.0895,"lo2":-89.0443,"dy":0.0025,"dx":0.0025,"nx":19,"ny":19,"refTime":"2026-03-21T03:00:00:Z","depth":0,"parameterNumber":2,"parameterNumberName":"U-component_of_WINDS"},"data":[0,0,0,0.0662,0.0666,0.0867,0.0868,0.1114,0.1116,0,0,0,0,0,0,0,0,0,0,0,0.0594,0.0596,0.0662,0.0666,0.0867,0.0868,0.1113,0.1116,0,0,0,0,0,0,0,0,0,0,0,0.0594,0.0595,0.0597,0.0667,0.0867,0.0868,0.1113,0.0966,0,0,0,0,0,0,0,0,0,0,0.0773,0.0702,0.0595,0.0597,0.0668,0.0866,0.0868,0.0959,0.0975,0.1018,0,0.1052,0,0.1087,0.1131,0.1132,0,0,0,0.0673,0.0688,0.075,0.0597,0.067,0.0866,0.0778,0.0968,0.0986,0.1039,0.1056,0.1065,0.1092,0.1133,0.1134,0.1355,0.1356,0,0,0.0662,0.0626,0.0737,0.0761,0.0727,0.0772,0.0784,0.0979,0.0996,0.1056,0.1071,0.1096,0.1134,0.1136,0.1355,0.1356,0,0,0,0.0626,0.0618,0.0675,0.075,0.0787,0.0777,0.0792,0.0987,0.1008,0.1074,0.1099,0.1136,0.1139,0.1354,0.1355,0.1358,0,0,0,0.0619,0.0597,0.067,0.065,0.0783,0.0889,0.0795,0.0995,0.1018,0.1097,0.1136,0.1141,0.1353,0.1355,0.1356,0.1366,0,0,0,0.0584,0.0593,0.0619,0.0648,0.0733,0.0887,0.092,0.1001,0.1033,0.1132,0.1142,0.1353,0.1354,0.1355,0.1364,0.1416,0,0,0,0.0537,0.0618,0.0618,0.072,0.0731,0.0885,0.0919,0.1036,0.1122,0.1137,0.1353,0.1355,0.1354,0.1362,0.1414,0.1456,0.1469,0,0,0.062,0.0627,0.069,0.0696,0.0841,0.0858,0.1005,0.1117,0.1159,0.1288,0.1294,0.1357,0.1364,0.1416,0.1549,0.1559,0,0,0,0.0704,0.0749,0.0795,0.0874,0.096,0.1037,0.113,0.1171,0.1282,0.1217,0.1389,0.1394,0.1427,0.1449,0.1457,0.1489,0.1362,0.1362,0.1362,0.0774,0.0823,0.093,0.1003,0.1079,0.1173,0.1241,0.1313,0.134,0.1379,0.142,0.1494,0.1518,0.1525,0.1557,0.1442,0.1442,0.1442,0.1442,0.0904,0.0977,0.1009,0.1125,0.1176,0.1275,0.1369,0.1385,0.1485,0.1468,0.1499,0.1479,0.1535,0.1566,0.1443,0.1443,0.1443,0.1443,0.1443,0.0959,0.1002,0.105,0.117,0.1257,0.1327,0.1422,0.1464,0.1505,0.1535,0.1584,0.1584,0.1592,0.1554,0.1555,0.1555,0.1555,0.1555,0.1555,0.0998,0.1052,0.1126,0.1224,0.1281,0.1361,0.1456,0.1514,0.1589,0.1613,0.1613,0.1638,0.1529,0.1503,0.156,0.1559,0.1558,0.1558,0.1558,0.1119,0.1098,0.1213,0.127,0.1389,0.1474,0.1525,0.1639,0.1692,0.1738,0.1755,0.1667,0.1678,0.1671,0.1651,0.1742,0.1742,0.1742,0.1742,0.1168,0.1176,0.1304,0.1392,0.1483,0.1541,0.1672,0.1746,0.182,0.1857,0.1849,0.1823,0.1814,0.1831,0.1821,0.1803,0.1931,0.1931,0.1931,0.1247,0.1266,0.1369,0.1439,0.1535,0.1617,0.1742,0.1844,0.1923,0.194,0.1887,0.1879,0.1838,0.1822,0.1842,0.1825,0.1792,0,0]},{"header":{"parameterUnit":"m.s-1","parameterCategory":1,"la1":30.2992,"la2":30.254,"lo1":-89.0895,"lo2":-89.0443,"dy":0.0025,"dx":0.0025,"nx":19,"ny":19,"refTime":"2026-03-21T03:00:00:Z","depth":0,"parameterNumber":3,"parameterNumberName":"V-component_of_WINDS"},"data":[0,0,0,5.3232,5.3237,5.343,5.3431,5.3676,5.3679,0,0,0,0,0,0,0,0,0,0,0,5.318,5.3182,5.3232,5.3237,5.343,5.3431,5.3676,5.3679,0,0,0,0,0,0,0,0,0,0,0,5.3179,5.3181,5.3183,5.3238,5.343,5.3431,5.3675,5.3529,0,0,0,0,0,0,0,0,0,0,5.3341,5.3298,5.318,5.3184,5.3239,5.343,5.3431,5.3522,5.3538,5.359,0,5.3642,0,5.3665,5.3695,5.3696,0,0,0,5.3232,5.3284,5.3333,5.3184,5.3241,5.343,5.3342,5.3531,5.3549,5.3611,5.3646,5.3655,5.3669,5.3697,5.3698,5.4028,5.4029,0,0,5.3221,5.3215,5.3321,5.3345,5.3322,5.3335,5.3348,5.3542,5.3576,5.3646,5.366,5.3673,5.3699,5.3701,5.4026,5.4028,0,0,0,5.3194,5.3208,5.3252,5.3335,5.3371,5.3341,5.3355,5.3568,5.3583,5.3663,5.3676,5.37,5.3703,5.4024,5.4027,5.4113,0,0,0,5.3187,5.3192,5.3248,5.3246,5.3368,5.3473,5.3377,5.3569,5.3592,5.3675,5.37,5.3706,5.4022,5.4025,5.4106,5.4155,0,0,0,5.3165,5.319,5.322,5.3245,5.3329,5.347,5.3496,5.3574,5.36,5.3697,5.3706,5.4021,5.4025,5.4101,5.4145,5.4242,0,0,0,5.3138,5.329,5.3221,5.3394,5.3327,5.3523,5.3495,5.3639,5.3732,5.3702,5.4022,5.4026,5.4099,5.4139,5.4236,5.4325,5.4361,0,0,5.3326,5.3312,5.3414,5.3359,5.3567,5.3494,5.3712,5.3799,5.3809,5.3953,5.3961,5.4109,5.4144,5.4241,5.4561,5.459,0,0,0,5.3472,5.3546,5.3602,5.3694,5.3767,5.3834,5.3889,5.3921,5.4044,5.3884,5.4168,5.419,5.4246,5.4289,5.4314,5.4363,5.4045,5.4045,5.4045,5.3729,5.374,5.391,5.3944,5.4032,5.4089,5.416,5.4212,5.4192,5.4259,5.4303,5.4497,5.4547,5.4566,5.4617,5.4348,5.4349,5.4349,5.4349,5.4007,5.4114,5.4088,5.4245,5.4253,5.4382,5.444,5.4423,5.4541,5.4465,5.4515,5.4433,5.4597,5.4643,5.4356,5.4355,5.4354,5.4353,5.4353,5.4179,5.4233,5.4273,5.4407,5.4507,5.4532,5.465,5.465,5.4651,5.4701,5.4748,5.4746,5.4747,5.4722,5.4723,5.4724,5.4724,5.4725,5.4725,5.4344,5.4386,5.4489,5.4581,5.464,5.4717,5.4774,5.483,5.4892,5.4882,5.4883,5.4858,5.4611,5.4551,5.4736,5.4734,5.4733,5.4732,5.4731,5.4628,5.4564,5.4722,5.4782,5.4889,5.4989,5.4988,5.5103,5.5148,5.5206,5.5169,5.4986,5.4971,5.4951,5.4902,5.5166,5.5166,5.5166,5.5166,5.4776,5.4768,5.4931,5.5027,5.5119,5.5135,5.5309,5.5353,5.5387,5.5416,5.5376,5.5309,5.5289,5.5285,5.5259,5.5213,5.555,5.555,5.5551,5.4951,5.4953,5.5105,5.5144,5.5227,5.5297,5.5461,5.5567,5.5592,5.5566,5.5438,5.5422,5.5313,5.5277,5.5252,5.5211,5.5126,0,0]}]]